ONEWEB-0595

operational
NORAD ID: 54661 Int'l Des: 2022-166 Owner: ONEWEBN Country: UK Constellation: oneweb
LEOCIRCULARPOLARONEWEB_TYPE

About ONEWEB-0595

Description loading...

Live Position

Loading 3D Globe...

Upcoming Passes

Altitude History

Altitude vs Time

uPlot chart will show altitude changes over time

Two-Line Element Set

1 54661U 22166V 25251.89297902 .00000039 00000-0 62589-4 0 9996
2 54661 87.9217 300.1088 0001889 100.5874 259.5473 13.21823101134374
Epoch: Sep 8, 2025 • Age: 13 hours

Current Status

Altitude 1181.0 km
Velocity 7.27 km/s
Sub-Earth Point 29.98°N, 157.99°E
Launch Date Dec 8, 2022
Age 2.7 years
Type internet

Technical Details

Classification Payload
Mass 148.00 kg
Dry Mass 140.00 kg
Total Mass 148.00 kg
Length 1.30 m
Diameter 1.00 m
Span 5.00 m
Shape Trapezoid+2 pan
Manufacturer ONEWUS
Bus Type ARROW
Phase Status In Orbit
Owner/State ONEWEBN/UK

Large Constellations

Loading constellations...